Notices

What's New in latest Release from April 7th, 2021:

- Updated Glossary, including Speed of Maximum Gust, and Total Hourly Precipitation

- Updated national and regional climate services offices contacts and prices information

- Addition of station inventory lists for 1981-2010, 1971-2000, and 1961-1990 Normals.

If you haven't already, please take our survey and provide feedback about our website: https://eccc.sondage-survey.ca/f/LanguageSelection.aspx?s=442ca660-fcf1-47c0-95a9-59707d6fd709

Hourly Data Report for January 11, 2006

TORONTO CITY
ONTARIO

43°40'00.000" N
79°24'00.000" W
112.50 m
6158355
71508
XTO

Download Data

Hourly Data (January 2006)
Hourly Data Report for January 11, 2006
TIME
LST
Temp Definition
°C
Dew Point Definition
°C
Rel Hum Definition
%
Precip. Amount Definition
mm

Wind Dir Definition
10's deg

Wind Spd Definition
km/h
Visibility Definition
km
Stn Press Definition
kPa
Hmdx Definition


Wind Chill Definition


Weather Definition


00:00 2.7 -0.5 79   LegendMM LegendMM   100.73     LegendNANA
01:00 2.8 0.4 84   LegendMM LegendMM   100.63     LegendNANA
02:00 3.2 0.9 85   LegendMM LegendMM   100.54     LegendNANA
03:00 3.0 1.3 89   LegendMM LegendMM   100.45     LegendNANA
04:00 2.5 1.5 93   LegendMM LegendMM   100.32     LegendNANA
05:00 2.6 2.1 96   LegendMM LegendMM   100.21     LegendNANA
06:00 3.0 2.6 97   LegendMM LegendMM   100.15     LegendNANA
07:00 3.6 3.2 97   LegendMM LegendMM   100.06     LegendNANA
08:00 4.3 3.5 95   LegendMM LegendMM   100.00     LegendNANA
09:00 4.8 3.9 94   LegendMM LegendMM   99.96     LegendNANA
10:00 5.8 4.4 91   LegendMM LegendMM   99.90     LegendNANA
11:00 7.1 4.7 85   LegendMM LegendMM   99.84     LegendNANA
12:00 8.5 5.4 81   LegendMM LegendMM   99.69     LegendNANA
13:00 8.6 5.6 81   LegendMM LegendMM   99.55     LegendNANA
14:00 8.7 5.7 81   LegendMM LegendMM   99.45     LegendNANA
15:00 8.7 5.8 82   LegendMM LegendMM   99.38     LegendNANA
16:00 7.6 5.2 85   LegendMM LegendMM   99.38     LegendNANA
17:00 7.1 5.0 86   LegendMM LegendMM   99.37     LegendNANA
18:00 7.3 5.6 89   LegendMM LegendMM   99.38     LegendNANA
19:00 5.9 4.8 93   LegendMM LegendMM   99.45     LegendNANA
20:00 6.1 4.5 89   LegendMM LegendMM   99.42     LegendNANA
21:00 6.6 3.9 83   LegendMM LegendMM   99.46     LegendNANA
22:00 5.5 2.5 81   LegendMM LegendMM   99.52     LegendNANA
23:00 5.0 1.9 80   LegendMM LegendMM   99.55     LegendNANA

Notes on Data Quality.

Legend

  • E = Estimated
  • M = Missing
  • NA = Not Available*
  • [empty] = Indicates an unobserved value
Date modified: